Asyut, Egypt

3:24 AM EET on September 23, 2017 (GMT +0200)
Asyut

Weather History for HEAT - November, 2012

Change the Weather History Date:

Tuesday, November 6, 2012

  Actual Average Record
Temperature  
Mean Temperature 74 °F -  
Max Temperature 86 °F 75 °F - ()
Min Temperature 63 °F 50 °F - ()
Cooling Degree Days 10    
Growing Degree Days 24 (Base 50)    
Moisture  
Dew Point 59 °F    
Average Humidity 63    
Maximum Humidity 88    
Minimum Humidity 35    
Precipitation  
Precipitation 0.00 in 0.00 in - ()
Sea Level Pressure  
Sea Level Pressure 29.96 in    
Wind  
Wind Speed 6 mph ()    
Max Wind Speed 13 mph    
Max Gust Speed -    
Visibility 2.8 miles    
Events Fog    
T = Trace of Precipitation, MM = Missing Value Source: Averaged Metar Reports

Daily Weather History Graph

Daily Weather History Graph

Search for Another Location

Airport or City:

Trip Planner

Search our weather history database for the weather conditions in past years. The results will help you decide how hot, cold, wet, or windy it might be!

Date:

Astronomy

Nov. 06, 2012 Rise Set
Actual Time 6:09 AM EET 5:09 PM EET
Civil Twilight 5:45 AM EET 5:33 PM EET
Nautical Twilight 5:17 AM EET 6:01 PM EET
Astronomical Twilight 4:50 AM EET 6:28 PM EET
Moon 11:22 PM EET (11/6) 11:53 AM EET (11/6)
Length of Visible Light 11h 48m
Length of Day
10h 59m
Waning Gibbous, 56% of the Moon is Illuminated
Nov 6
Waning Gibbous
Nov 7
Last Quarter
Nov 14
New
Nov 20
First Quarter
Nov 28
Full

Hourly Weather History & Observations

Time (EET) Temp. Heat Index Dew Point Humidity Pressure Visibility Wind Dir Wind Speed Gust Speed Precip Events Conditions
12:00 AM 68.0 °F - 50.0 °F 52% 29.98 in - SE 5.8 mph - N/A   Clear
1:00 AM 66.2 °F - 50.0 °F 56% 29.95 in - SSE 4.6 mph - N/A   Clear
2:00 AM 64 °F - 50 °F 50% 29.94 in 6 mi SSW 3.5 mph - -  
2:00 AM 64.4 °F - 50.0 °F 59% 29.95 in - SSW 3.5 mph - N/A   Clear
3:00 AM 64.4 °F - 50.0 °F 59% 29.95 in - SSW 4.6 mph - N/A   Clear
4:00 AM 62.6 °F - 50.0 °F 63% 29.95 in - South 2.3 mph - N/A   Clear
5:00 AM 64.4 °F - 59.0 °F 83% 29.95 in - WSW 9.2 mph - N/A   Clear
6:00 AM 64.4 °F - 59.0 °F 83% 29.95 in 3.7 mi West 6.9 mph - N/A   Unknown
7:00 AM 64.4 °F - 60.8 °F 88% 29.98 in 1.2 mi WNW 6.9 mph - N/A   Mist
8:00 AM 65 °F - 61 °F 81% 30.01 in 0 mi SSE 3.5 mph - -   Mist
8:00 AM 64.4 °F - 60.8 °F 88% 30.01 in 0.1 mi SSE 3.5 mph - N/A Fog Fog
9:00 AM 66.2 °F - 62.6 °F 88% - 0.4 mi SW 5.8 mph - N/A Fog Fog
10:00 AM 71.6 °F - 64.4 °F 78% 30.01 in 0.9 mi SW 5.8 mph - N/A   Mist
11:00 AM 77.0 °F - 62.6 °F 61% 29.98 in 1.9 mi NW 5.8 mph - N/A   Unknown
12:00 PM 80.6 °F 83.9 °F 69.8 °F 70% 29.95 in 3.7 mi NNW 8.1 mph - N/A   Unknown
1:00 PM 82.4 °F 83.4 °F 62.6 °F 51% 29.95 in 3.7 mi North 9.2 mph - N/A   Unknown
2:00 PM 85 °F - 61 °F 35% 29.91 in 6 mi North 9.2 mph - -  
2:00 PM 84.2 °F 84.4 °F 60.8 °F 45% 29.92 in - North 9.2 mph - N/A   Clear
3:00 PM 86.0 °F 86.1 °F 60.8 °F 43% 29.92 in - North 12.7 mph - N/A   Clear
4:00 PM 87.8 °F 87.1 °F 59.0 °F 38% 29.92 in - North 11.5 mph - N/A   Clear
5:00 PM 84.2 °F 83.0 °F 55.4 °F 37% 29.92 in - NNW 10.4 mph - N/A   Clear
6:00 PM 80.6 °F 80.8 °F 57.2 °F 45% 29.95 in - NNW 8.1 mph - N/A   Clear
7:00 PM 78.8 °F - 57.2 °F 47% 29.95 in - NW 8.1 mph - N/A   Clear
8:00 PM 75 °F - 65 °F 62% 29.96 in 6 mi NNE 5.8 mph - -  
8:00 PM 75.2 °F - 64.4 °F 69% 29.98 in - NNE 5.8 mph - N/A   Clear
9:00 PM 73.4 °F - 64.4 °F 73% 29.98 in - NW 9.2 mph - N/A   Clear
10:00 PM 71.6 °F - 64.4 °F 78% 29.98 in - NW 9.2 mph - N/A   Clear
11:00 PM 68.0 °F - 60.8 °F 78% 29.98 in - NW 10.4 mph - N/A   Clear